Tracking 31030 objects as of 17-Jul-2025
HD Live streaming from Space Station
objects crossing your sky now

HIBER-2

Track HIBER-2 now!
10-day predictions


NORAD ID: 43774
Int'l Code: 2018-099S
Perigee: 449.1 km
Apogee: 455.2 km
Inclination: 97.5 °
Period: 93.5 minutes
Semi major axis: 6823 km
RCS: Unknown
Launch date: December 3, 2018
Source: Netherlands (NETH)
Launch site: AIR FORCE WESTERN TEST RANGE (AFWTR)
Your satellite tracking list
Your tracking list is empty




NASA's NSSDC Master Catalog

Two Line Element Set (TLE):
1 43774U 18099S   25197.17447680  .00026214  00000-0  64940-3 0  9994
2 43774  97.4858 267.0805 0004483  18.0378 342.1026 15.40380716362815
Source of the keplerian elements: AFSPC